IT9RID Weather Reports


time (UTC)temp
C
wind
direction
speed
KPH
gust
KPH
rain 1hr
cm
rain 24hr
cm
rain mn
cm
humidity
%
barometer
mb
20260504050353 12 215 0.0 0.0 0.00 0.00 0.00 60 1019.8
20260504045352 11 212 0.0 3.2 0.00 0.00 0.00 61 1019.8
20260504044353 11 216 0.0 4.8 0.00 0.00 0.00 61 1019.7
20260504043352 11 198 0.0 4.8 0.00 0.00 0.00 61 1019.7
20260504042352 11 223 0.0 3.2 0.00 0.00 0.00 62 1019.6
20260504041352 11 207 4.8 4.8 0.00 0.00 0.00 61 1019.6
20260504040352 11 211 4.8 6.4 0.00 0.00 0.00 62 1019.5
20260504035351 11 208 0.0 0.0 0.00 0.00 0.00 63 1019.4
20260504034351 11 208 0.0 4.8 0.00 0.00 0.00 62 1019.4
20260504033351 11 207 0.0 4.8 0.00 0.00 0.00 61 1019.4
20260504032351 11 208 1.6 4.8 0.00 0.00 0.00 62 1019.5
20260504031351 11 203 0.0 3.2 0.00 0.00 0.00 63 1019.5
20260504030351 10 223 0.0 4.8 0.00 0.00 0.00 66 1019.5
20260504025351 10 209 0.0 0.0 0.00 0.00 0.00 66 1019.6
20260504024350 10 209 0.0 0.0 0.00 0.00 0.00 66 1019.6
20260504023350 11 209 0.0 1.6 0.00 0.00 0.00 63 1019.6
20260504022350 11 200 0.0 4.8 0.00 0.00 0.00 63 1019.6
20260504021350 11 192 0.0 3.2 0.00 0.00 0.00 62 1019.7
20260504020350 11 186 0.0 0.0 0.00 0.00 0.00 63 1019.5
20260504015350 11 184 0.0 0.0 0.00 0.00 0.00 63 1019.5
20260504014349 11 192 1.6 8.0 0.00 0.00 0.00 62 1019.4
20260504013349 11 208 0.0 4.8 0.00 0.00 0.00 63 1019.3
20260504012350 11 204 0.0 6.4 0.00 0.00 0.00 62 1019.3
20260504011349 11 180 4.8 6.4 0.00 0.00 0.00 63 1019.3
20260504010349 11 194 0.0 3.2 0.00 0.00 0.00 62 1019.4
20260504005349 11 198 0.0 0.0 0.00 0.00 0.00 63 1019.6
20260504004349 11 186 0.0 3.2 0.00 0.00 0.00 65 1019.6
20260504003348 11 204 0.0 1.6 0.00 0.00 0.00 65 1019.7
20260504002348 11 209 0.0 0.0 0.00 0.00 0.00 66 1019.7
20260504001357 11 209 0.0 0.0 0.00 0.00 0.00 67 1019.7
20260504000348 11 208 0.0 6.4 0.00 0.00 0.00 69 1019.8
20260503235348 11 215 0.0 0.0 0.00 0.00 0.00 69 1019.8
20260503234348 12 215 0.0 4.8 0.00 0.00 0.00 69 1019.9
20260503233347 12 209 4.8 6.4 0.00 0.00 0.00 71 1020.0
20260503232347 11 211 0.0 4.8 0.00 0.00 0.00 72 1020.1
20260503231350 12 213 0.0 3.2 0.00 0.00 0.00 73 1020.0
20260503230347 11 202 0.0 0.0 0.00 0.00 0.00 74 1020.2
20260503225347 12 200 0.0 0.0 0.00 0.00 0.00 74 1020.3
20260503224347 12 199 0.0 0.0 0.00 0.00 0.00 74 1020.4
20260503223347 12 198 0.0 0.0 0.00 0.00 0.00 74 1020.4
20260503222346 12 213 0.0 0.0 0.00 0.00 0.00 75 1020.4
20260503221346 12 229 4.8 8.0 0.00 0.00 0.00 76 1020.3
20260503220346 12 194 0.0 0.0 0.00 0.00 0.00 76 1020.4
20260503215346 12 194 0.0 1.6 0.00 0.00 0.00 76 1020.3
20260503214346 12 215 0.0 0.0 0.00 0.00 0.00 77 1020.4
20260503213345 13 197 0.0 6.4 0.00 0.00 0.00 76 1020.3
20260503212345 13 213 0.0 0.0 0.00 0.00 0.00 76 1020.3
20260503211345 13 214 0.0 1.6 0.00 0.00 0.00 77 1020.3
20260503210406 13 215 0.0 0.0 0.00 0.00 0.00 78 1020.5
20260503205345 13 213 0.0 4.8 0.00 0.00 0.00 78 1020.5
20260503204405 13 214 0.0 0.0 0.00 0.00 0.00 79 1020.5
20260503203345 13 215 0.0 3.2 0.00 0.00 0.00 78 1020.6
20260503202345 13 211 0.0 4.8 0.00 0.00 0.00 78 1020.5
20260503201344 13 207 4.8 6.4 0.00 0.00 0.00 78 1020.5
20260503200344 13 207 3.2 3.2 0.00 0.00 0.00 78 1020.3
20260503195344 13 187 0.0 1.6 0.00 0.00 0.00 78 1020.4
20260503194344 13 178 0.0 0.0 0.00 0.00 0.00 78 1020.3
20260503193344 14 154 0.0 4.8 0.00 0.00 0.00 79 1020.4
20260503192344 14 216 0.0 0.0 0.00 0.00 0.00 79 1020.4
20260503191343 15 216 0.0 0.0 0.00 0.00 0.00 79 1020.2
20260503190343 15 216 0.0 0.0 0.00 0.00 0.00 79 1020.3
20260503185343 15 242 0.0 0.0 0.00 0.00 0.00 78 1020.2
20260503184343 15 253 0.0 1.6 0.00 0.00 0.00 77 1020.0
20260503183343 15 257 0.0 0.0 0.00 0.00 0.00 76 1019.9
20260503182343 16 257 0.0 0.0 0.00 0.00 0.00 75 1019.7
20260503181343 16 257 0.0 0.0 0.00 0.00 0.00 74 1019.7
20260503180342 16 257 0.0 0.0 0.00 0.00 0.00 73 1019.6
20260503175342 17 258 4.8 4.8 0.00 0.00 0.00 71 1019.5
20260503174401 17 323 0.0 0.0 0.00 0.00 0.00 71 1019.5
20260503172342 17 248 0.0 4.8 0.00 0.00 0.00 71 1019.6
20260503171341 17 242 0.0 4.8 0.00 0.00 0.00 70 1019.4
20260503170341 17 278 0.0 3.2 0.00 0.00 0.00 70 1019.4
20260503150339 18 333 1.6 6.4 0.00 0.00 0.00 66 1019.8
20260503131339 18 233 6.4 9.7 0.00 0.00 0.00 64 1020.4
20260503130338 18 291 1.6 16.1 0.00 0.00 0.00 62 1020.4
20260503110336 18 242 1.6 16.1 0.00 0.00 0.00 63 1021.1
20260503090334 17 321 9.7 16.1 0.00 0.00 0.00 60 1021.7
20260503081333 17 315 8.0 16.1 0.00 0.00 0.00 56 1021.4
20260503080333 17 314 1.6 9.7 0.00 0.00 0.00 57 1021.5
20260503072332 17 247 4.8 6.4 0.00 0.00 0.00 57 1021.3
20260503071332 16 308 4.8 8.0 0.00 0.00 0.00 57 1021.4
20260503070332 17 302 0.0 4.8 0.00 0.00 0.00 56 1021.3
20260503060331 13 236 0.0 0.0 0.00 0.00 0.00 69 1021.3
20260503054331 12 221 1.6 3.2 0.00 0.00 0.00 70 1021.3
20260503053331 12 194 0.0 4.8 0.00 0.00 0.00 71 1021.2
20260503052330 11 215 6.4 8.0 0.00 0.00 0.00 71 1021.1